Torna al catalogo

FENGYUN 1C DEB

AttivoSSO
NORAD 30317·DEBRIS·🇨🇳 China

Lanciato May 10, 1999 da Taiyuan Satellite Launch Center

Loading…

Prossimi Passaggi (prossime 24 ore)

TLE

AggiornatoSource: Space-Track

Epoca: Sep 14, 2026, 10:18 UTC

1 30317U 99025AAE 26257.42952158  .00000283  00000-0  19468-3 0  9991
2 30317  98.7968 255.2931 0024379 218.9876 140.9536 14.07067562  8875

Traccia FENGYUN 1C DEB in tempo reale con AllMySat

Download on the App Store